Location: Alvis C Story Elementary School
(33.0968°N, 96.6364°W)
Time: 14:09:34
(UTC+00:00)

Cosmos 44 - Pass Details

Date: 08 December 2021
Orbit: 584 x 777 km, 65.1° (Epoch: 25 January)

Event Time Altitude Azimuth Distance (km) Brightness Sun altitude
Rises 12:26:23 0° 194° (SSW) 3,237 6.8 -10.7°
Reaches altitude 10° 12:28:50 10° 190° (S) 2,316 6.1 -10.2°
Maximum altitude 12:34:02 54° 114° (ESE) 935 4.4 -9.2°
Drops below altitude 10° 12:39:10 10° 38° (NE) 2,290 6.2 -8.2°
Sets 12:41:34 0° 34° (NE) 3,197 6.9 -7.7°
